Sioux Falls, SD

6:13 AM CDT on May 25, 2017 (GMT -0500)
Foss

Weather History for KFSD - January, 2014

Change the Weather History Date:

Wednesday, January 29, 2014

  Actual Average Record
Temperature  
Mean Temperature 22 °F 18 °F  
Max Temperature 44 °F 27 °F 62 °F (1931)
Min Temperature -1 °F 8 °F -29 °F (1966)
Degree Days  
Heating Degree Days 43 48  
Month to date heating degree days 1494 1410  
Since 1 July heating degree days 4762 4543  
Cooling Degree Days 0 0  
Month to date cooling degree days 0 0  
Year to date cooling degree days 0 0  
Moisture  
Dew Point 5 °F    
Average Humidity 51    
Maximum Humidity 75    
Minimum Humidity 27    
Precipitation  
Precipitation 0.00 in 0.02 in 0.90 in (1922)
Month to date precipitation 0.21 0.52  
Year to date precipitation 0.21 0.52  
Snow  
Snow 0.00 in 0.30 in 6.00 in (1922)
Month to date snowfall 3.8 7.2  
Since 1 July snowfall 24.3 24.1  
Snow Depth T in    
Sea Level Pressure  
Sea Level Pressure 29.82 in    
Wind  
Wind Speed 10 mph (SSW)    
Max Wind Speed 23 mph    
Max Gust Speed 30 mph    
Visibility 10 miles    
Events      
T = Trace of Precipitation, MM = Missing Value Source: NWS Daily Summary

Daily Weather History Graph

Daily Weather History Graph

Search for Another Location

Airport or City:

Trip Planner

Search our weather history database for the weather conditions in past years. The results will help you decide how hot, cold, wet, or windy it might be!

Date:

Astronomy

Jan. 29, 2014 Rise Set
Actual Time 7:46 AM CST 5:34 PM CST
Civil Twilight 7:15 AM CST 6:05 PM CST
Nautical Twilight 6:41 AM CST 6:39 PM CST
Astronomical Twilight 6:07 AM CST 7:13 PM CST
Moon 6:24 AM CST (1/29) 4:35 PM CST (1/29)
Length of Visible Light 10h 49m
Length of Day
9h 47m
Waning Crescent, 2% of the Moon is Illuminated
Jan 29
Waning Crescent
Jan 30
New
Feb 6
First Quarter
Feb 14
Full
Feb 22
Last Quarter

Hourly Weather History & Observations

Time (CST) Temp. Windchill Dew Point Humidity Pressure Visibility Wind Dir Wind Speed Gust Speed Precip Events Conditions
12:56 AM 3.0 °F -4.4 °F -6.0 °F 66% 30.20 in 10.0 mi SW 3.5 mph - N/A   Clear
1:56 AM 1.9 °F -9.2 °F -6.0 °F 69% 30.18 in 10.0 mi SSW 5.8 mph - N/A   Clear
2:56 AM 1.9 °F -11.8 °F -6.0 °F 69% 30.16 in 10.0 mi SSW 8.1 mph - N/A   Clear
3:56 AM 1.0 °F -10.3 °F -7.1 °F 69% 30.14 in 10.0 mi SSW 5.8 mph - N/A   Clear
4:56 AM 1.0 °F -6.7 °F -6.0 °F 72% 30.10 in 10.0 mi SSW 3.5 mph - N/A   Clear
5:56 AM 1.9 °F -10.6 °F -6.0 °F 69% 30.07 in 10.0 mi SSW 6.9 mph - N/A   Clear
6:56 AM 3.0 °F -9.3 °F -5.1 °F 69% 30.04 in 10.0 mi SSW 6.9 mph - N/A   Clear
7:56 AM 5.0 °F -6.9 °F -4.0 °F 66% 30.02 in 10.0 mi SSW 6.9 mph - N/A   Partly Cloudy
8:56 AM 9.0 °F -4.2 °F -2.9 °F 59% 29.99 in 10.0 mi SSW 9.2 mph - N/A   Partly Cloudy
9:56 AM 14.0 °F -0.8 °F -0.0 °F 54% 29.96 in 10.0 mi SSW 13.8 mph - N/A   Partly Cloudy
10:56 AM 21.0 °F 8.1 °F 5.0 °F 50% 29.91 in 10.0 mi SSW 13.8 mph - N/A   Partly Cloudy
11:56 AM 27.0 °F 14.7 °F 8.1 °F 45% 29.84 in 10.0 mi SSW 16.1 mph - N/A   Partly Cloudy
12:56 PM 32.0 °F 19.8 °F 10.0 °F 40% 29.78 in 10.0 mi SSW 20.7 mph 25.3 mph N/A   Partly Cloudy
1:56 PM 37.9 °F 29.2 °F 12.0 °F 35% 29.73 in 10.0 mi SSW 15.0 mph - N/A   Scattered Clouds
2:56 PM 42.1 °F 35.2 °F 10.9 °F 28% 29.69 in 10.0 mi SW 12.7 mph - N/A   Mostly Cloudy
3:56 PM 44.1 °F 39.0 °F 12.0 °F 27% 29.68 in 10.0 mi SW 9.2 mph - N/A   Mostly Cloudy
4:56 PM 43.0 °F 38.8 °F 12.9 °F 30% 29.66 in 10.0 mi SW 6.9 mph - N/A   Scattered Clouds
5:56 PM 39.0 °F 35.7 °F 12.9 °F 34% 29.64 in 10.0 mi SW 4.6 mph - N/A   Scattered Clouds
6:56 PM 37.9 °F 32.1 °F 10.9 °F 33% 29.63 in 10.0 mi SSW 8.1 mph - N/A   Mostly Cloudy
7:56 PM 37.0 °F 29.3 °F 10.9 °F 34% 29.60 in 10.0 mi SSW 11.5 mph - N/A   Mostly Cloudy
8:56 PM 35.1 °F 25.9 °F 12.9 °F 40% 29.56 in 10.0 mi South 13.8 mph - N/A   Overcast
9:56 PM 35.1 °F 25.9 °F 12.9 °F 40% 29.53 in 10.0 mi SSW 13.8 mph - N/A   Overcast
10:56 PM 35.1 °F 26.9 °F 15.1 °F 44% 29.49 in 10.0 mi SSW 11.5 mph - N/A   Overcast
11:56 PM 35.1 °F 27.4 °F 15.1 °F 44% 29.47 in 10.0 mi South 10.4 mph - N/A   Overcast